Terminal Aerodrome Forecast
Issued by NWS Miami, FL

Home | Current Version | Previous Version | Text Only | Print | Product List | Glossary On
Versions: 1 2 3 4 5 6 7 8 9 10 11 12 13 14 15 16 17 18 19 20 21 22 23 24 25 26 27 28 29 30 31 32 33 34 35 36 37 38 39 40 41 42 43 44 45 46 47 48 49 50
000
FTUS42 KMFL 041739
TAFAPF
TAF
KAPF 041739Z 0418/0518 14012KT P6SM SCT025
     FM041900 19011KT P6SM SCT050 SCT250
     FM050000 VRB05KT P6SM FEW040 SCT250
     FM051000 09005KT 5SM BR FEW005
     FM051300 13008KT P6SM SCT030=

USA.gov is the U.S. government's official web portal to all federal, state and local government web resources and services.